When you browse on this site, cookies collect data to enhance your experience and personalize the content and advertising you see.
Visit our Privacy Policy to learn more. By continuing to use the site, you agree to this use of cookies and data.
  • en France
  • Liste des pays
  • À 7 jours
  • Température de l'eau
  • Carte météo
  • Widgets météo
  • user-avatar
    Se connecter

    Météo par heure à Villarrica

    Ce jour, 18 Septembre, Mercredi

    Heure Température Précipitation Vent Pression Humidité
    00:00 +5°C° 0 mm 0 m/s 745 mmHg 98%
    01:00 +5°C° 0 mm 0 m/s 745 mmHg 98%
    02:00 +5°C° 0 mm 0 m/s 745 mmHg 98%
    03:00 +6°C° 0 mm 0 m/s 745 mmHg 98%
    04:00 +7°C° 0 mm 1 m/s 744 mmHg 98%
    05:00 +7°C° 0 mm 1 m/s 744 mmHg 98%
    06:00 +7°C° 0 mm 1 m/s 743 mmHg 97%
    07:00 +7°C° 0 mm 1 m/s 743 mmHg 97%
    08:00 +6°C° 0.1 mm 2 m/s 742 mmHg 95%
    09:00 +7°C° 0.1 mm 2 m/s 741 mmHg 92%
    10:00 +7°C° 0.1 mm 2 m/s 740 mmHg 90%
    11:00 +7°C° 0.6 mm 3 m/s 739 mmHg 92%
    12:00 +7°C° 0.6 mm 3 m/s 738 mmHg 95%
    13:00 +5°C° 0.6 mm 3 m/s 737 mmHg 97%
    14:00 +5°C° 2.4 mm 4 m/s 738 mmHg 97%
    15:00 +5°C° 2.4 mm 4 m/s 738 mmHg 97%
    16:00 +5°C° 2.4 mm 4 m/s 738 mmHg 97%
    17:00 +4°C° 0.2 mm 3 m/s 739 mmHg 96%
    18:00 +4°C° 0.2 mm 2 m/s 740 mmHg 95%
    19:00 +3°C° 0.2 mm 2 m/s 741 mmHg 94%
    20:00 +3°C° 0.1 mm 1 m/s 742 mmHg 95%
    21:00 +3°C° 0.1 mm 1 m/s 743 mmHg 95%
    22:00 +2°C° 0.1 mm 1 m/s 743 mmHg 96%
    23:00 +2°C° 0.1 mm 1 m/s 744 mmHg 96%

    Demain, 19 Septembre, Jeudi

    Heure Température Précipitation Vent Pression Humidité
    00:00 0°C° 0.1 mm 0 m/s 744 mmHg 96%
    01:00 0°C° 0.1 mm 0 m/s 744 mmHg 96%
    02:00 0°C° 0 mm 0 m/s 745 mmHg 96%
    03:00 0°C° 0 mm 0 m/s 745 mmHg 96%
    04:00 0°C° 0 mm 0 m/s 746 mmHg 96%
    05:00 0°C° 0 mm 0 m/s 746 mmHg 96%
    06:00 +1°C° 0 mm 0 m/s 746 mmHg 96%
    07:00 +1°C° 0 mm 0 m/s 746 mmHg 95%
    08:00 +3°C° 0 mm 0 m/s 746 mmHg 88%
    09:00 +5°C° 0 mm 0 m/s 746 mmHg 82%
    10:00 +7°C° 0 mm 0 m/s 746 mmHg 75%
    11:00 +8°C° 0.1 mm 1 m/s 746 mmHg 74%
    12:00 +8°C° 0.1 mm 1 m/s 746 mmHg 73%
    13:00 +9°C° 0.1 mm 1 m/s 746 mmHg 73%
    14:00 +8°C° 0.2 mm 1 m/s 746 mmHg 78%
    15:00 +8°C° 0.2 mm 1 m/s 746 mmHg 83%
    16:00 +8°C° 0.2 mm 1 m/s 746 mmHg 88%
    17:00 +6°C° 0.1 mm 0 m/s 746 mmHg 91%
    18:00 +5°C° 0.1 mm 0 m/s 747 mmHg 94%
    19:00 +4°C° 0.1 mm 0 m/s 747 mmHg 96%
    20:00 +3°C° 0 mm 0 m/s 748 mmHg 96%
    21:00 +3°C° 0 mm 0 m/s 748 mmHg 96%
    22:00 +3°C° 0 mm 0 m/s 748 mmHg 96%
    23:00 +2°C° 0 mm 0 m/s 749 mmHg 96%

    Après-demain, 20 Septembre, Vendredi

    Heure Température Précipitation Vent Pression Humidité
    00:00 +2°C° 0 mm 0 m/s 749 mmHg 97%
    01:00 +1°C° 0 mm 0 m/s 749 mmHg 97%
    02:00 +1°C° 0 mm 0 m/s 749 mmHg 97%
    03:00 0°C° 0 mm 0 m/s 749 mmHg 97%
    04:00 0°C° 0 mm 0 m/s 749 mmHg 97%
    05:00 +1°C° 0 mm 0 m/s 749 mmHg 96%
    06:00 +2°C° 0 mm 0 m/s 749 mmHg 96%
    07:00 +2°C° 0 mm 0 m/s 749 mmHg 95%
    08:00 +4°C° 0 mm 0 m/s 749 mmHg 88%
    09:00 +6°C° 0 mm 0 m/s 749 mmHg 82%
    10:00 +9°C° 0 mm 1 m/s 749 mmHg 75%
    11:00 +9°C° 0 mm 1 m/s 749 mmHg 72%
    12:00 +9°C° 0 mm 1 m/s 748 mmHg 70%
    13:00 +9°C° 0 mm 1 m/s 748 mmHg 68%
    14:00 +9°C° 0.1 mm 1 m/s 748 mmHg 70%
    15:00 +9°C° 0.1 mm 1 m/s 748 mmHg 73%
    16:00 +8°C° 0.1 mm 0 m/s 748 mmHg 76%
    17:00 +6°C° 0.1 mm 0 m/s 748 mmHg 82%
    18:00 +5°C° 0.1 mm 0 m/s 748 mmHg 88%
    19:00 +4°C° 0.1 mm 0 m/s 749 mmHg 93%
    20:00 +3°C° 0 mm 0 m/s 749 mmHg 94%
    21:00 +2°C° 0 mm 0 m/s 749 mmHg 94%
    22:00 +2°C° 0 mm 0 m/s 749 mmHg 95%
    23:00 +2°C° 0 mm 0 m/s 748 mmHg 95%

    21 Septembre, Samedi

    Heure Température Précipitation Vent Pression Humidité
    00:00 +1°C° 0 mm 0 m/s 748 mmHg 96%
    01:00 +1°C° 0 mm 0 m/s 748 mmHg 96%
    02:00 +1°C° 0 mm 0 m/s 748 mmHg 96%
    03:00 +1°C° 0 mm 0 m/s 748 mmHg 96%
    04:00 +1°C° 0 mm 0 m/s 748 mmHg 96%
    05:00 +2°C° 0 mm 0 m/s 748 mmHg 94%
    06:00 +2°C° 0 mm 0 m/s 748 mmHg 93%
    07:00 +3°C° 0 mm 0 m/s 748 mmHg 91%
    08:00 +5°C° 0 mm 0 m/s 747 mmHg 87%
    09:00 +6°C° 0 mm 0 m/s 747 mmHg 82%
    10:00 +7°C° 0 mm 0 m/s 747 mmHg 77%
    11:00 +10°C° 0 mm 1 m/s 747 mmHg 72%
    12:00 +11°C° 0 mm 1 m/s 747 mmHg 66%
    13:00 +13°C° 0 mm 2 m/s 746 mmHg 60%
    14:00 +12°C° 0 mm 2 m/s 746 mmHg 61%
    15:00 +12°C° 0 mm 2 m/s 746 mmHg 62%
    16:00 +12°C° 0 mm 2 m/s 745 mmHg 63%
    17:00 +9°C° 0 mm 2 m/s 746 mmHg 73%
    18:00 +8°C° 0 mm 1 m/s 746 mmHg 83%
    19:00 +6°C° 0 mm 1 m/s 746 mmHg 93%
    20:00 +5°C° 0 mm 1 m/s 746 mmHg 93%
    21:00 +5°C° 0 mm 1 m/s 746 mmHg 94%
    22:00 +4°C° 0 mm 1 m/s 746 mmHg 94%
    23:00 +4°C° 0 mm 1 m/s 745 mmHg 94%

    22 Septembre, Dimanche

    Heure Température Précipitation Vent Pression Humidité
    00:00 +3°C° 0 mm 1 m/s 745 mmHg 93%
    01:00 +3°C° 0 mm 1 m/s 745 mmHg 93%
    02:00 +3°C° 0 mm 1 m/s 745 mmHg 93%
    03:00 +3°C° 0 mm 1 m/s 745 mmHg 93%
    04:00 +3°C° 0 mm 1 m/s 744 mmHg 94%
    05:00 +3°C° 0 mm 1 m/s 744 mmHg 91%
    06:00 +4°C° 0 mm 1 m/s 744 mmHg 88%
    07:00 +5°C° 0 mm 1 m/s 745 mmHg 86%
    08:00 +7°C° 0 mm 1 m/s 745 mmHg 76%
    09:00 +10°C° 0 mm 1 m/s 745 mmHg 66%
    10:00 +13°C° 0 mm 1 m/s 745 mmHg 56%
    11:00 +14°C° 0 mm 1 m/s 745 mmHg 55%
    12:00 +15°C° 0 mm 1 m/s 744 mmHg 54%
    13:00 +16°C° 0 mm 1 m/s 744 mmHg 53%
    14:00 +15°C° 0 mm 1 m/s 744 mmHg 57%
    15:00 +14°C° 0 mm 1 m/s 744 mmHg 60%
    16:00 +14°C° 0 mm 1 m/s 745 mmHg 64%
    17:00 +12°C° 0 mm 1 m/s 745 mmHg 73%
    18:00 +8°C° 0 mm 0 m/s 746 mmHg 83%
    19:00 +6°C° 0 mm 0 m/s 747 mmHg 92%
    20:00 +5°C° 0 mm 0 m/s 747 mmHg 93%
    21:00 +5°C° 0 mm 0 m/s 747 mmHg 94%
    22:00 +4°C° 0 mm 0 m/s 748 mmHg 95%
    23:00 +4°C° 0 mm 0 m/s 748 mmHg 95%

    23 Septembre, Lundi

    Heure Température Précipitation Vent Pression Humidité
    00:00 +3°C° 0 mm 0 m/s 748 mmHg 95%
    01:00 +3°C° 0 mm 0 m/s 748 mmHg 96%
    02:00 +4°C° 0 mm 1 m/s 748 mmHg 95%
    03:00 +4°C° 0 mm 1 m/s 748 mmHg 94%
    04:00 +4°C° 0 mm 1 m/s 747 mmHg 94%
    05:00 +5°C° 0 mm 1 m/s 748 mmHg 90%
    06:00 +5°C° 0 mm 1 m/s 748 mmHg 86%
    07:00 +6°C° 0 mm 1 m/s 748 mmHg 82%
    08:00 +9°C° 0 mm 1 m/s 747 mmHg 70%
    09:00 +12°C° 0 mm 1 m/s 747 mmHg 59%
    10:00 +16°C° 0 mm 1 m/s 747 mmHg 47%
    11:00 +18°C° 0 mm 1 m/s 746 mmHg 45%
    12:00 +19°C° 0 mm 1 m/s 746 mmHg 44%
    13:00 +20°C° 0 mm 1 m/s 745 mmHg 42%
    14:00 +19°C° 0 mm 1 m/s 744 mmHg 47%
    15:00 +19°C° 0 mm 1 m/s 744 mmHg 52%
    16:00 +19°C° 0 mm 1 m/s 743 mmHg 57%
    17:00 +15°C° 0 mm 1 m/s 743 mmHg 66%
    18:00 +13°C° 0 mm 1 m/s 743 mmHg 76%
    19:00 +10°C° 0 mm 1 m/s 743 mmHg 85%
    20:00 +10°C° 0 mm 1 m/s 743 mmHg 85%
    21:00 +9°C° 0 mm 1 m/s 743 mmHg 86%
    22:00 +9°C° 0 mm 1 m/s 743 mmHg 86%
    23:00 +8°C° 0 mm 1 m/s 743 mmHg 86%
    Voir plus